AFR010 LFPG-KJFK

Flight info

Callsign AFR010
Flight time N/A
Altitude 38000
Route ELCOB UT300 SENLO DCT JSY DCT LIZAD DCT ARKIL DCT LIMRI/M084F390 DCT 52N020W 52N030W 51N040W 49N050W DCT JOOPY/N0487F400 N328A TUSKY DCT PLYMM PARCH4
Aircraft A359/H-SDE2E3GHIJ3J4J5LM1ORWXY/LB1D1

Departure

Time 2026-05-08 23:41
Airport Charles de Gaulle International Airport (LFPG)

Arrival

Time N/A
Airport John F. Kennedy International Airport (KJFK)
Time Latitude Longitude Altitude Speed Heading
2026-05-08 23:28 49.00640 2.58963 361 ft 0 kts 85°
2026-05-08 23:33 49.00638 2.58940 367 ft 4 kts 81°
2026-05-08 23:33 49.00635 2.58911 367 ft 4 kts 75°
2026-05-08 23:33 49.00626 2.58873 365 ft 4 kts 61°
2026-05-08 23:34 49.00611 2.58842 367 ft 4 kts 30°
2026-05-08 23:34 49.00596 2.58834 362 ft 0 kts 355°
2026-05-08 23:36 49.00609 2.58833 365 ft 6 kts 355°
2026-05-08 23:36 49.00709 2.58820 362 ft 14 kts 355°
2026-05-08 23:36 49.00864 2.58669 367 ft 15 kts 307°
2026-05-08 23:37 49.00923 2.58385 369 ft 16 kts 265°
2026-05-08 23:37 49.00903 2.58020 363 ft 19 kts 265°
2026-05-08 23:37 49.00879 2.57608 367 ft 21 kts 265°
2026-05-08 23:37 49.00856 2.57151 366 ft 22 kts 265°
2026-05-08 23:38 49.00830 2.56659 361 ft 24 kts 265°
2026-05-08 23:38 49.00787 2.56146 365 ft 25 kts 262°
2026-05-08 23:38 49.00739 2.55618 366 ft 26 kts 262°
2026-05-08 23:38 49.00564 2.55276 367 ft 24 kts 164°
2026-05-08 23:39 49.00227 2.55415 367 ft 26 kts 165°
2026-05-08 23:39 48.99931 2.55555 362 ft 26 kts 154°
2026-05-08 23:39 48.99822 2.55763 365 ft 24 kts 137°
2026-05-08 23:39 48.99661 2.55817 369 ft 21 kts 174°
2026-05-08 23:40 48.99607 2.55855 368 ft 5 kts 121°
2026-05-08 23:40 48.99606 2.55909 362 ft 7 kts 85°
2026-05-08 23:40 48.99623 2.56220 369 ft 60 kts 85°
2026-05-08 23:40 48.99672 2.57170 365 ft 118 kts 85°
2026-05-08 23:41 48.99751 2.58648 406 ft 160 kts 83°
2026-05-08 23:41 48.99830 2.60331 1042 ft 155 kts 85°
2026-05-08 23:41 48.99910 2.61942 1674 ft 157 kts 84°
2026-05-08 23:41 49.00015 2.63807 1902 ft 182 kts 85°
2026-05-08 23:42 49.00255 2.68212 2395 ft 234 kts 86°
2026-05-08 23:42 49.00532 2.73413 3570 ft 253 kts 86°
2026-05-08 23:42 49.00537 2.78880 4911 ft 263 kts 98°
2026-05-08 23:42 48.99987 2.84499 6265 ft 273 kts 99°
2026-05-08 23:43 48.99400 2.90330 7646 ft 282 kts 100°
2026-05-08 23:43 48.98745 2.96240 9050 ft 291 kts 108°
2026-05-08 23:43 48.96250 3.00836 10323 ft 293 kts 159°
2026-05-08 23:43 48.92165 3.00469 10806 ft 321 kts 213°
2026-05-08 23:44 48.89708 2.94639 11801 ft 340 kts 255°
2026-05-08 23:44 48.88587 2.87660 13147 ft 349 kts 255°
2026-05-08 23:44 48.87375 2.80433 14448 ft 357 kts 255°
2026-05-08 23:44 48.86097 2.73088 15743 ft 361 kts 255°
2026-05-08 23:45 48.84791 2.65680 17010 ft 366 kts 255°
2026-05-08 23:45 48.83454 2.58145 18296 ft 372 kts 255°
2026-05-08 23:45 48.82081 2.50452 19338 ft 381 kts 255°
2026-05-08 23:45 48.80821 2.42537 20363 ft 390 kts 262°
2026-05-08 23:46 48.81154 2.34282 21384 ft 399 kts 284°
2026-05-08 23:46 48.82764 2.26115 22399 ft 408 kts 287°
2026-05-08 23:46 48.84441 2.17889 23399 ft 416 kts 287°
2026-05-08 23:46 48.86152 2.09372 24222 ft 425 kts 286°
2026-05-08 23:47 48.87879 2.00712 25169 ft 430 kts 286°
2026-05-08 23:47 48.89615 1.91952 26049 ft 436 kts 286°
2026-05-08 23:47 48.91367 1.83068 26918 ft 442 kts 286°
2026-05-08 23:47 48.93137 1.74055 27787 ft 447 kts 286°
2026-05-08 23:48 48.94930 1.64873 28481 ft 456 kts 286°
2026-05-08 23:48 48.96736 1.55584 29314 ft 461 kts 286°
2026-05-08 23:48 48.98561 1.46153 30077 ft 466 kts 285°
2026-05-08 23:48 49.00399 1.36605 30724 ft 471 kts 285°
2026-05-08 23:49 49.02241 1.26990 31276 ft 477 kts 285°
2026-05-08 23:49 49.03370 1.17019 31837 ft 479 kts 274°
2026-05-08 23:49 49.03748 1.06828 32391 ft 482 kts 271°
2026-05-08 23:49 49.04002 0.96580 32934 ft 485 kts 271°
2026-05-08 23:50 49.04267 0.86268 33445 ft 489 kts 271°
2026-05-08 23:50 49.04552 0.75893 34051 ft 489 kts 271°
2026-05-08 23:50 49.04837 0.65561 34711 ft 485 kts 271°
2026-05-08 23:50 49.05110 0.55321 35295 ft 483 kts 271°
2026-05-08 23:51 49.05369 0.45241 35805 ft 481 kts 270°
2026-05-08 23:51 49.05621 0.35067 36264 ft 480 kts 270°
2026-05-08 23:51 49.05856 0.25189 36719 ft 478 kts 270°
2026-05-08 23:51 49.05987 0.19560 36989 ft 477 kts 269°
2026-05-08 23:52 49.06167 0.11604 37352 ft 475 kts 269°
2026-05-08 23:52 49.06384 0.01663 37763 ft 474 kts 269°
2026-05-08 23:52 49.06595 -0.08373 38050 ft 475 kts 269°
2026-05-08 23:52 49.06797 -0.18518 38073 ft 478 kts 269°
2026-05-08 23:53 49.07185 -0.38785 38075 ft 478 kts 268°
2026-05-08 23:53 49.07530 -0.59070 38071 ft 478 kts 268°
2026-05-08 23:54 49.07841 -0.79221 38071 ft 478 kts 268°
2026-05-08 23:55 49.08245 -1.09658 38061 ft 478 kts 268°
2026-05-08 23:55 49.08775 -1.19775 38063 ft 481 kts 279°
2026-05-08 23:55 49.10230 -1.29759 38056 ft 483 kts 280°
2026-05-08 23:56 49.13481 -1.49742 38050 ft 486 kts 281°
2026-05-08 23:56 49.16658 -1.69644 38053 ft 486 kts 280°
2026-05-08 23:57 49.19818 -1.89792 38031 ft 488 kts 280°
2026-05-08 23:57 49.22984 -2.09993 38045 ft 489 kts 281°
2026-05-08 23:58 49.26464 -2.30021 38045 ft 490 kts 282°
2026-05-08 23:58 49.29890 -2.50150 38026 ft 490 kts 281°
2026-05-08 23:59 49.33256 -2.70286 38029 ft 490 kts 281°
2026-05-08 23:59 49.36616 -2.90606 38037 ft 491 kts 281°
2026-05-09 00:00 49.39930 -3.10889 38041 ft 491 kts 281°
2026-05-09 00:00 49.43228 -3.31323 38037 ft 494 kts 281°
2026-05-09 00:01 49.46505 -3.51872 38034 ft 494 kts 280°
2026-05-09 00:01 49.49745 -3.72449 38035 ft 494 kts 280°
2026-05-09 00:02 49.52943 -3.93023 38033 ft 494 kts 280°
2026-05-09 00:02 49.56084 -4.13481 38035 ft 495 kts 279°
2026-05-09 00:03 49.59531 -4.34039 38032 ft 499 kts 289°
2026-05-09 00:03 49.65407 -4.53546 38042 ft 501 kts 292°
2026-05-09 00:04 49.71440 -4.72874 38040 ft 502 kts 292°
2026-05-09 00:04 49.77427 -4.92357 38039 ft 502 kts 292°
2026-05-09 00:05 49.83388 -5.11921 38042 ft 501 kts 292°
2026-05-09 00:05 49.89307 -5.31497 38045 ft 499 kts 291°
2026-05-09 00:06 49.95127 -5.50904 38031 ft 499 kts 291°
2026-05-09 00:06 50.00970 -5.70546 38051 ft 500 kts 291°
2026-05-09 00:07 50.06783 -5.90242 38046 ft 499 kts 291°
2026-05-09 00:07 50.12523 -6.09851 38056 ft 497 kts 291°
2026-05-09 00:08 50.18227 -6.29500 38058 ft 497 kts 291°
2026-05-09 00:08 50.23873 -6.49105 38059 ft 497 kts 290°
2026-05-09 00:09 50.29518 -6.68873 38061 ft 497 kts 290°
2026-05-09 00:09 50.35130 -6.88688 38066 ft 497 kts 290°
2026-05-09 00:10 50.40700 -7.08521 38072 ft 498 kts 290°
2026-05-09 00:10 50.46223 -7.28352 38071 ft 497 kts 290°
2026-05-09 00:11 50.51719 -7.48255 38077 ft 496 kts 289°
2026-05-09 00:11 50.57185 -7.68216 38078 ft 496 kts 289°
2026-05-09 00:12 50.62613 -7.88211 38085 ft 495 kts 289°
2026-05-09 00:12 50.67799 -8.08068 38079 ft 491 kts 286°
2026-05-09 00:13 50.72242 -8.28399 38076 ft 490 kts 285°
2026-05-09 00:13 50.76767 -8.48751 38107 ft 490 kts 286°
2026-05-09 00:14 50.81268 -8.69032 38091 ft 489 kts 285°
2026-05-09 00:14 50.85731 -8.89370 38095 ft 489 kts 285°
2026-05-09 00:15 50.90153 -9.09724 38102 ft 489 kts 285°
2026-05-09 00:15 50.94548 -9.30154 38099 ft 489 kts 285°
2026-05-09 00:16 50.98901 -9.50591 38110 ft 489 kts 285°
2026-05-09 00:16 51.03206 -9.71013 38111 ft 490 kts 285°
2026-05-09 00:17 51.07499 -9.91581 38113 ft 490 kts 285°
2026-05-09 00:17 51.11755 -10.12183 38113 ft 490 kts 285°
2026-05-09 00:18 51.15969 -10.32793 38118 ft 488 kts 285°
2026-05-09 00:18 51.20133 -10.53376 38129 ft 487 kts 285°
2026-05-09 00:19 51.24251 -10.73950 38124 ft 486 kts 285°
2026-05-09 00:19 51.28304 -10.94408 38130 ft 486 kts 285°
2026-05-09 00:20 51.32354 -11.15073 38135 ft 487 kts 284°
2026-05-09 00:20 51.36366 -11.35762 38140 ft 487 kts 284°
2026-05-09 00:21 51.40353 -11.56558 38157 ft 487 kts 284°
2026-05-09 00:21 51.44278 -11.77246 38148 ft 489 kts 283°
2026-05-09 00:22 51.48192 -11.98114 38157 ft 487 kts 284°
2026-05-09 00:22 51.52055 -12.18933 38156 ft 486 kts 284°
2026-05-09 00:23 51.55876 -12.39782 38167 ft 486 kts 284°
2026-05-09 00:23 51.59032 -12.57152 38170 ft 486 kts 282°
2026-05-09 00:24 51.63371 -12.81334 38181 ft 482 kts 284°
2026-05-09 00:24 51.67054 -13.02096 38191 ft 480 kts 284°
2026-05-09 00:25 51.70077 -13.19347 38200 ft 483 kts 283°
2026-05-09 00:25 51.73707 -13.40257 38208 ft 485 kts 283°
2026-05-09 00:26 51.77329 -13.61384 38211 ft 485 kts 282°
2026-05-09 00:26 51.80866 -13.82271 38220 ft 486 kts 283°
2026-05-09 00:27 51.84408 -14.03438 38232 ft 487 kts 283°
2026-05-09 00:27 51.87904 -14.24590 38235 ft 487 kts 283°
2026-05-09 00:28 51.91366 -14.45802 38246 ft 484 kts 283°
2026-05-09 00:28 51.94743 -14.66756 38255 ft 484 kts 283°
2026-05-09 00:29 51.98112 -14.87921 38259 ft 483 kts 283°
2026-05-09 00:29 52.00226 -15.09437 38265 ft 487 kts 271°
2026-05-09 00:30 52.00651 -15.31309 38269 ft 488 kts 271°
2026-05-09 00:30 52.01016 -15.53280 38270 ft 486 kts 271°
2026-05-09 00:31 52.01362 -15.75184 38280 ft 486 kts 271°
2026-05-09 00:31 52.01667 -15.97114 38285 ft 488 kts 271°
2026-05-09 00:32 52.01931 -16.19143 38287 ft 489 kts 271°
2026-05-09 00:32 52.02155 -16.41205 38303 ft 489 kts 271°
2026-05-09 00:33 52.02337 -16.63219 38302 ft 491 kts 271°
2026-05-09 00:33 52.02479 -16.85428 38306 ft 491 kts 270°
2026-05-09 00:34 52.02580 -17.07685 38318 ft 493 kts 271°
2026-05-09 00:34 52.02638 -17.29920 38322 ft 493 kts 271°
2026-05-09 00:35 52.02655 -17.52258 38322 ft 495 kts 271°
2026-05-09 00:35 52.02630 -17.74488 38386 ft 496 kts 271°
2026-05-09 00:36 52.02562 -17.96690 38335 ft 489 kts 271°
2026-05-09 00:36 52.02454 -18.18882 38340 ft 492 kts 271°
2026-05-09 00:37 52.02304 -18.41021 38354 ft 492 kts 271°
2026-05-09 00:37 52.02110 -18.63322 38345 ft 495 kts 271°
2026-05-09 00:38 52.01875 -18.85710 38357 ft 496 kts 271°
2026-05-09 00:38 52.01599 -19.08108 38359 ft 498 kts 271°
2026-05-09 00:39 52.01275 -19.30589 38364 ft 498 kts 271°
2026-05-09 00:39 52.00909 -19.53123 38369 ft 499 kts 271°
2026-05-09 00:40 52.00496 -19.75729 38371 ft 501 kts 271°
2026-05-09 00:40 52.00068 -19.98335 38361 ft 500 kts 274°
2026-05-09 00:41 52.01310 -20.31919 38382 ft 499 kts 277°
2026-05-09 00:41 52.02195 -20.54457 38384 ft 499 kts 276°
2026-05-09 00:42 52.03022 -20.76943 38392 ft 499 kts 276°
2026-05-09 00:42 52.03809 -20.99475 38398 ft 499 kts 276°
2026-05-09 00:43 52.04553 -21.22036 38400 ft 500 kts 276°
2026-05-09 00:43 52.05253 -21.44585 38399 ft 500 kts 276°
2026-05-09 00:44 52.05908 -21.67049 38415 ft 501 kts 277°
2026-05-09 00:44 52.06525 -21.89688 38415 ft 502 kts 276°
2026-05-09 00:45 52.07101 -22.12433 38414 ft 502 kts 277°
2026-05-09 00:45 52.07632 -22.35134 38432 ft 503 kts 276°
2026-05-09 00:46 52.08119 -22.57884 38436 ft 502 kts 277°
2026-05-09 00:46 52.08563 -22.80587 38439 ft 501 kts 277°
2026-05-09 00:47 52.08960 -23.03101 38444 ft 501 kts 277°
2026-05-09 00:47 52.09317 -23.25806 38450 ft 502 kts 277°
2026-05-09 00:48 52.09629 -23.48500 38455 ft 502 kts 277°
2026-05-09 00:48 52.09898 -23.71168 38457 ft 501 kts 277°
2026-05-09 00:49 52.10123 -23.93877 38467 ft 502 kts 277°
2026-05-09 00:49 52.10305 -24.16603 38469 ft 502 kts 277°
2026-05-09 00:50 52.10443 -24.39178 38468 ft 503 kts 277°
2026-05-09 00:50 52.10538 -24.61947 38481 ft 503 kts 276°
2026-05-09 00:51 52.10589 -24.84719 38459 ft 503 kts 277°
2026-05-09 00:51 52.10597 -25.07496 38484 ft 503 kts 276°
2026-05-09 00:52 52.10561 -25.30107 38493 ft 503 kts 276°
2026-05-09 00:52 52.10481 -25.52906 38492 ft 504 kts 277°
2026-05-09 00:53 52.10388 -25.70773 38497 ft 504 kts 276°
2026-05-09 00:53 52.10314 -25.82187 38503 ft 504 kts 276°
2026-05-09 00:54 52.10229 -25.93595 38503 ft 504 kts 276°
2026-05-09 00:54 52.10132 -26.05003 38506 ft 504 kts 277°
2026-05-09 00:55 52.10027 -26.16317 38508 ft 504 kts 277°
2026-05-09 00:55 52.09909 -26.27734 38506 ft 504 kts 276°
2026-05-09 00:56 52.09781 -26.39136 38509 ft 504 kts 276°
2026-05-09 00:56 52.09642 -26.50478 38512 ft 504 kts 277°
2026-05-09 00:57 52.09491 -26.61887 38515 ft 504 kts 277°
2026-05-09 00:57 52.09329 -26.73303 38526 ft 505 kts 276°
2026-05-09 00:58 52.09156 -26.84704 38524 ft 505 kts 276°
2026-05-09 00:58 52.08972 -26.96123 38530 ft 505 kts 276°
2026-05-09 00:59 52.08777 -27.07531 38521 ft 506 kts 277°
2026-05-09 00:59 52.08571 -27.18980 38530 ft 506 kts 277°
2026-05-09 01:00 52.08353 -27.30455 38544 ft 507 kts 277°
2026-05-09 01:00 52.08125 -27.41837 38544 ft 507 kts 277°
2026-05-09 01:01 52.07884 -27.53306 38514 ft 507 kts 277°
2026-05-09 01:01 52.07633 -27.64781 38549 ft 508 kts 277°
2026-05-09 01:02 52.07370 -27.76265 38548 ft 508 kts 277°
2026-05-09 01:02 52.07095 -27.87753 38548 ft 508 kts 276°
2026-05-09 01:03 52.06810 -27.99227 38554 ft 508 kts 276°
2026-05-09 01:03 52.06513 -28.10700 38548 ft 509 kts 277°
2026-05-09 01:04 52.06205 -28.22189 38551 ft 508 kts 277°
2026-05-09 01:04 52.05888 -28.33584 38552 ft 508 kts 277°
2026-05-09 01:05 52.05559 -28.45040 38559 ft 507 kts 277°
2026-05-09 01:06 52.05045 -28.62202 38539 ft 507 kts 277°
2026-05-09 01:06 52.04689 -28.73685 38562 ft 508 kts 277°
2026-05-09 01:07 52.04320 -28.85170 38562 ft 509 kts 277°
2026-05-09 01:07 52.03939 -28.96638 38570 ft 509 kts 277°
2026-05-09 01:08 52.03549 -29.08057 38570 ft 509 kts 277°
2026-05-09 01:08 52.03145 -29.19562 38567 ft 510 kts 277°
2026-05-09 01:09 52.02731 -29.31079 38572 ft 511 kts 277°
2026-05-09 01:09 52.02307 -29.42537 38534 ft 511 kts 277°
2026-05-09 01:10 52.01868 -29.54077 38575 ft 512 kts 276°
2026-05-09 01:10 52.01417 -29.65627 38576 ft 512 kts 276°
2026-05-09 01:11 52.00955 -29.77191 38581 ft 514 kts 276°
2026-05-09 01:11 52.00483 -29.88706 38582 ft 514 kts 276°
2026-05-09 01:12 51.99996 -30.00296 38586 ft 514 kts 276°
2026-05-09 01:12 51.99405 -30.11902 38587 ft 517 kts 274°
2026-05-09 01:13 51.98701 -30.23519 38559 ft 517 kts 274°
2026-05-09 01:13 51.97999 -30.35078 38584 ft 518 kts 274°
2026-05-09 01:14 51.97300 -30.46728 38588 ft 518 kts 274°
2026-05-09 01:14 51.96599 -30.58344 38589 ft 518 kts 274°
2026-05-09 01:15 51.96006 -30.68017 38586 ft 518 kts 274°
2026-05-09 01:15 51.95283 -30.79649 38581 ft 518 kts 274°
2026-05-09 01:16 51.94548 -30.91283 38592 ft 518 kts 274°
2026-05-09 01:16 51.93800 -31.02914 38591 ft 519 kts 273°
2026-05-09 01:17 51.92662 -31.20285 38592 ft 519 kts 273°
2026-05-09 01:17 51.91885 -31.31916 38591 ft 519 kts 273°
2026-05-09 01:18 51.91097 -31.43543 38592 ft 519 kts 273°
2026-05-09 01:18 51.90298 -31.55156 38591 ft 519 kts 273°
2026-05-09 01:19 51.89487 -31.66782 38592 ft 519 kts 273°
2026-05-09 01:19 51.88663 -31.78411 38586 ft 520 kts 272°
2026-05-09 01:20 51.87829 -31.90026 38586 ft 518 kts 272°
2026-05-09 01:20 51.86985 -32.01598 38590 ft 518 kts 272°
2026-05-09 01:21 51.86135 -32.13113 38593 ft 518 kts 272°
2026-05-09 01:21 51.85270 -32.24679 38592 ft 518 kts 272°
2026-05-09 01:22 51.84392 -32.36262 38582 ft 518 kts 271°
2026-05-09 01:22 51.83502 -32.47834 38592 ft 518 kts 271°
2026-05-09 01:23 51.82602 -32.59382 38592 ft 518 kts 271°
2026-05-09 01:23 51.81690 -32.70944 38589 ft 518 kts 271°
2026-05-09 01:24 51.80767 -32.82506 38592 ft 518 kts 271°
2026-05-09 01:24 51.79832 -32.94064 38587 ft 518 kts 270°
2026-05-09 01:25 51.78892 -33.05532 38574 ft 518 kts 270°
2026-05-09 01:25 51.77935 -33.17039 38589 ft 515 kts 270°
2026-05-09 01:26 51.76973 -33.28502 38592 ft 515 kts 270°
2026-05-09 01:26 51.76002 -33.39952 38587 ft 514 kts 269°
2026-05-09 01:27 51.75021 -33.51340 38587 ft 510 kts 269°
2026-05-09 01:27 51.74041 -33.62600 38589 ft 509 kts 269°
2026-05-09 01:28 51.73049 -33.73903 38587 ft 509 kts 269°
2026-05-09 01:28 51.72043 -33.85219 38581 ft 509 kts 269°
2026-05-09 01:29 51.70938 -33.97486 38580 ft 506 kts 268°
2026-05-09 01:29 51.68895 -34.19788 39117 ft 501 kts 268°
2026-05-09 01:30 51.68223 -34.27026 39441 ft 497 kts 268°
2026-05-09 01:30 51.67715 -34.32432 39755 ft 492 kts 268°
2026-05-09 01:30 51.67203 -34.37878 39906 ft 492 kts 268°
2026-05-09 01:30 51.66689 -34.43342 39997 ft 492 kts 268°
2026-05-09 01:31 51.66173 -34.48797 40159 ft 491 kts 268°
2026-05-09 01:31 51.65657 -34.54229 40283 ft 491 kts 268°
2026-05-09 01:31 51.65136 -34.59677 40392 ft 491 kts 268°
2026-05-09 01:31 51.64613 -34.65109 40504 ft 491 kts 267°
2026-05-09 01:32 51.63557 -34.76007 40566 ft 493 kts 267°
2026-05-09 01:32 51.62488 -34.86915 40567 ft 493 kts 267°
2026-05-09 01:33 51.61417 -34.97731 40564 ft 493 kts 267°
2026-05-09 01:33 51.60328 -35.08623 40566 ft 493 kts 267°
2026-05-09 01:34 51.59226 -35.19546 40561 ft 493 kts 266°
2026-05-09 01:34 51.58117 -35.30431 40560 ft 493 kts 266°
2026-05-09 01:35 51.57006 -35.41232 40535 ft 493 kts 266°
2026-05-09 01:35 51.55879 -35.52067 40558 ft 489 kts 266°
2026-05-09 01:36 51.54749 -35.62830 40552 ft 487 kts 266°
2026-05-09 01:36 51.53618 -35.73542 40553 ft 487 kts 266°
2026-05-09 01:37 51.52475 -35.84264 40543 ft 487 kts 266°
2026-05-09 01:37 51.51328 -35.94921 40535 ft 487 kts 266°
2026-05-09 01:38 51.50165 -36.05616 40543 ft 485 kts 266°
2026-05-09 01:38 51.48996 -36.16270 40543 ft 484 kts 266°
2026-05-09 01:39 51.47820 -36.26912 40554 ft 484 kts 265°
2026-05-09 01:39 51.46639 -36.37505 40537 ft 484 kts 265°
2026-05-09 01:40 51.45445 -36.48126 40548 ft 484 kts 265°
2026-05-09 01:40 51.44238 -36.58761 40546 ft 484 kts 265°
2026-05-09 01:41 51.43024 -36.69357 40533 ft 481 kts 265°
2026-05-09 01:41 51.41808 -36.79888 40530 ft 480 kts 265°
2026-05-09 01:42 51.40593 -36.90340 40533 ft 480 kts 265°
2026-05-09 01:42 51.39362 -37.00845 40520 ft 479 kts 265°
2026-05-09 01:43 51.38122 -37.11328 40522 ft 477 kts 264°
2026-05-09 01:43 51.36877 -37.21771 40514 ft 477 kts 264°
2026-05-09 01:44 51.35623 -37.32208 40513 ft 477 kts 264°
2026-05-09 01:44 51.34369 -37.42566 40505 ft 477 kts 264°
2026-05-09 01:45 51.33097 -37.52994 40506 ft 477 kts 264°
2026-05-09 01:45 51.31815 -37.63405 40503 ft 477 kts 264°
2026-05-09 01:46 51.30525 -37.73806 40496 ft 477 kts 264°
2026-05-09 01:46 51.29233 -37.84154 40491 ft 476 kts 263°
2026-05-09 01:47 51.27926 -37.94528 40492 ft 476 kts 263°
2026-05-09 01:47 51.26614 -38.04876 40483 ft 476 kts 263°
2026-05-09 01:48 51.25289 -38.15249 40484 ft 476 kts 263°
2026-05-09 01:48 51.23956 -38.25601 40479 ft 476 kts 263°
2026-05-09 01:49 51.22616 -38.35933 40476 ft 476 kts 263°
2026-05-09 01:49 51.21265 -38.46276 40468 ft 476 kts 263°
2026-05-09 01:50 51.19904 -38.56617 40468 ft 476 kts 262°
2026-05-09 01:50 51.18544 -38.66875 40462 ft 476 kts 262°
2026-05-09 01:51 51.17162 -38.77223 40454 ft 476 kts 262°
2026-05-09 01:51 51.15775 -38.87536 40454 ft 476 kts 262°
2026-05-09 01:52 51.14376 -38.97868 40432 ft 475 kts 262°
2026-05-09 01:52 51.12985 -39.08055 40445 ft 473 kts 261°
2026-05-09 01:53 51.11577 -39.18302 40439 ft 472 kts 261°
2026-05-09 01:53 51.10166 -39.28508 40437 ft 472 kts 261°
2026-05-09 01:54 51.08756 -39.38638 40426 ft 472 kts 261°
2026-05-09 01:54 51.07326 -39.48836 40419 ft 472 kts 261°
2026-05-09 01:55 51.05889 -39.59013 40421 ft 471 kts 261°
2026-05-09 01:55 51.04443 -39.69181 40422 ft 470 kts 261°
2026-05-09 01:56 51.03000 -39.79268 40416 ft 471 kts 261°
2026-05-09 01:56 51.01539 -39.89413 40410 ft 471 kts 260°
2026-05-09 01:57 51.00070 -39.99550 40393 ft 470 kts 260°
2026-05-09 01:57 50.98571 -40.09660 40397 ft 468 kts 259°
2026-05-09 01:58 50.97055 -40.19593 40393 ft 465 kts 259°
2026-05-09 01:58 50.95530 -40.29550 40385 ft 464 kts 259°
2026-05-09 01:59 50.94005 -40.39485 40381 ft 464 kts 259°
2026-05-09 01:59 50.92472 -40.49430 40375 ft 463 kts 258°
2026-05-09 02:00 50.90936 -40.59332 40375 ft 463 kts 259°
2026-05-09 02:00 50.89399 -40.69178 40375 ft 462 kts 258°
2026-05-09 02:01 50.87846 -40.79066 40361 ft 462 kts 258°
2026-05-09 02:01 50.86284 -40.88948 40361 ft 462 kts 258°
2026-05-09 02:02 50.84714 -40.98823 40349 ft 463 kts 257°
2026-05-09 02:02 50.83138 -41.08680 40351 ft 461 kts 257°
2026-05-09 02:03 50.81564 -41.18456 40349 ft 461 kts 257°